Flag for Canada Weather past 2 weeks in London, Ontario, Canada

Now
55 °F

Mostly cloudy.


Feels Like: 55 °F
Forecast: 51 / 73 °F
Wind: No wind

Location: London Weather Station

Current Time: Jul 31, 2014 at 4:10:58 AM

Latest Report: Jul 31, 2014 at 3:00 AM


Visibility: 15 mi

Pressure: 29.97 "Hg

Humidity: 94%

Dew point: 54 °F

Location of LondonLocation

Historic Weather in London — Graph

°F

London temperature yesterday

Maximum temperature yesterday: 70 °F (at 4:00 PM)
Minimum temperature yesterday: 55 °F (at 5:00 AM)
Average temperature yesterday: 62 °F

Past Weeks' High & Low Weather Summary

 TemperatureHumidityPressure
High82 °F (Jul 21, 5:00 PM)100% (Jul 17, 3:00 AM)30.25 "Hg (Jul 17, 3:00 AM)
Low48 °F (Jul 17, 5:00 AM)43% (Jul 17, 1:00 PM)29.59 "Hg (Jul 27, 7:00 PM)
Average65 °F80%29.99 "Hg
* Reported Jul 16 3:00 AM — Jul 31 3:00 AM, London, Weather by CustomWeather, © 2014

Note: Actual official high and low records may vary slightly from our data, if they occured in-between our weather recording intervals... More about our weather records

Advertising

London weather history for previous 24 hours

 ConditionsComfort  
Time TempWeatherWind HumidityBarometerVisibility
3:00 AM
Jul 31
55 °FMostly cloudy.No wind94%29.97 "Hg15 mi
2:00 AM55 °FPartly cloudy.3 mph94%29.97 "Hg15 mi
1:00 AM55 °FPassing clouds.3 mph94%29.98 "Hg15 mi
12:00 AM55 °FPassing clouds.No wind94%29.99 "Hg15 mi
11:00 PM
Jul 30
57 °FPassing clouds.3 mph94%30.00 "Hg15 mi
10:00 PM57 °FPartly cloudy.No wind88%30.01 "Hg15 mi
9:00 PM59 °FScattered clouds.3 mph82%29.99 "Hg15 mi
8:00 PM64 °FBroken clouds.7 mph64%29.99 "Hg15 mi
7:00 PM68 °FBroken clouds.8 mph60%29.98 "Hg15 mi
6:00 PM70 °FScattered clouds.8 mph53%29.98 "Hg15 mi
5:00 PM70 °FScattered clouds.8 mph53%29.98 "Hg15 mi
4:00 PM70 °FScattered clouds.12 mph60%29.98 "Hg15 mi
3:00 PM68 °FPartly sunny.12 mph69%29.98 "Hg15 mi
2:00 PM68 °FBroken clouds.10 mph64%29.97 "Hg10 mi
1:00 PM68 °FBroken clouds.13 mph69%29.99 "Hg10 mi
12:00 PM64 °FSprinkles. Partly sunny.7 mph83%29.98 "Hg8 mi
11:00 AM66 °FFog.5 mph78%29.99 "Hg6 mi
10:00 AM63 °FFog.3 mph88%29.99 "Hg5 mi
9:00 AM59 °FFog.6 mph94%29.98 "Hg5 mi
8:00 AM59 °FFog.3 mph94%29.97 "Hg5 mi
7:00 AM57 °FFog.3 mph100%29.96 "Hg5 mi
6:00 AM55 °FFog.5 mph100%29.95 "Hg6 mi
5:00 AM55 °FPassing clouds.3 mph100%29.94 "Hg15 mi
4:00 AM57 °FPassing clouds.2 mph94%29.94 "Hg15 mi
Weather by CustomWeather, © 2014

See weather overviewHow to use our weather pages